Погода в Краснополянском

Россия / Калининградская область     54°35′59″N   21°57′55″E
темп.,
°C
ветер,
м/с
пор.,
м/с
влажн.,
%
обл.,
%
осадки,
мм/ч
давл.,
гПа
погр.,
м
12 апреля, пн
пн1223:00+13ююв71662100 0.0 1017559
02:00+11ююв61368100 0.0 1017470
05:00+10ююв51272100 0.0 1017430
08:00+11ююв61270100 0.1 1017590
11:00+10ююв51172100 0.1 1017547
14:00+11ююв5872100 0.1 1017469
17:00+12зюз2577100 0.0 1018425
20:00+4сз5889100 0.0 1021447
13 апреля, вт
вт1323:00+3сз51093100 0.1 1022539
02:00+3сз3990100 0.4 1023568
05:00+3зсз3988100 0.0 1023522
08:00+4сз4878100 0.0 1025507
11:00+6сз455999 0.0 1025842
14:00+9сз4545100 0.0 10251435
17:00+7ссз5551100 0.0 1025952
20:00+4ссз3769100 0.0 1025427
14 апреля, ср
ср1423:00+3сз2579100 0.0 1025335
02:00+3сз2586100 0.0 1024318
05:00+2сз259197 0.0 1023203
08:00+4ссз358092 0.0 1023442
11:00+7с4560100 0.0 10231137
14:00+9с5649100 0.0 10221650
17:00+9ссв4750100 0.0 10211911
20:00+6ссз3569100 0.0 1022133
15 апреля, чт
чт1523:00+5ссв51060100 0.0 1022559
02:00+3ссв51167100 0.0 1022580
05:00+2с51169100 0.0 1022510
08:00+4ссв6126987 0.0 1022741
11:00+7св7115599 0.0 10221148
14:00+9св6948100 0.0 10221359
17:00+10св695369 0.0 10211505
20:00+6ссв5126177 0.0 1022411
16 апреля, пт
пт1623:00+5ссв5126490 0.0 1023507
02:00+4ссв5117280 0.0 1023511
05:00+3ссв51170100 0.0 1023595
08:00+2св61090100 0.1 1024580
11:00+2св51196100 0.2 1024553
14:00+5св51086100 0.2 1025685
17:00+5св51392100 0.3 1026609
20:00+4св379496 0.6 1028172